Location: Atherton
(17.2661°S, 145.4859°E)
Time: 12:35:48
(UTC+10:00)

Vanguard 1 - Pass Details

Date: 26 June 2025
Orbit: 649 x 3822 km, 34.2° (Epoch: 05 July)

Event Time Altitude Azimuth Distance (km) Brightness Sun altitude
Rises 13:59:45 0° 337° (NNW) 7,518 15.4 42.8°
Reaches altitude 10° 14:06:25 10° 349° (N) 6,765 15.3 41.9°
Maximum altitude 14:23:46 26° 37° (NE) 5,528 14.3 39.5°
Drops below altitude 10° 14:39:02 10° 86° (E) 6,075 13.9 37.2°
Sets 14:44:18 0° 97° (E) 6,674 13.9 36.4°
